Culdrose, United Kingdom

3:38 PM GMT on February 20, 2017 (GMT +0000)
Culdrose

Weather History for EGDR - July, 2013

Change the Weather History Date:

Tuesday, July 16, 2013

  Actual Average Record
Temperature  
Mean Temperature 64 °F -  
Max Temperature 72 °F 64 °F 77 °F (2006)
Min Temperature 55 °F 54 °F 44 °F (2001)
Degree Days  
Heating Degree Days 2    
Growing Degree Days 14 (Base 50)    
Moisture  
Dew Point 57 °F    
Average Humidity 78    
Maximum Humidity 100    
Minimum Humidity 60    
Precipitation  
Precipitation 0.00 in - - ()
Sea Level Pressure  
Sea Level Pressure 30.25 in    
Wind  
Wind Speed 7 mph ()    
Max Wind Speed 16 mph    
Max Gust Speed -    
Visibility 7.1 miles    
Events      
Averages and records for this station are not official NWS values.
T = Trace of Precipitation, MM = Missing Value Source: Averaged Metar Reports

Daily Weather History Graph

Daily Weather History Graph

Search for Another Location

Airport or City:

Trip Planner

Search our weather history database for the weather conditions in past years. The results will help you decide how hot, cold, wet, or windy it might be!

Date:

Astronomy

Jul. 16, 2013 Rise Set
Actual Time 5:29 AM BST 9:24 PM BST
Civil Twilight 4:47 AM BST 10:05 PM BST
Nautical Twilight 3:48 AM BST 11:04 PM BST
Astronomical Twilight 2:07 AM BST 12:41 AM BST
Moon 2:33 PM BST (7/16) 12:11 AM BST (7/16)
Length of Visible Light 17h 18m
Length of Day
15h 54m
First Quarter, 54% of the Moon is Illuminated
Jul 16
First Quarter
Jul 22
Full
Jul 29
Last Quarter
Aug 6
New
Aug 14
First Quarter

Hourly Weather History & Observations

Time (BST) Temp. Dew Point Humidity Pressure Visibility Wind Dir Wind Speed Gust Speed Precip Events Conditions
12:50 AM 57 °F 55 °F 92% 30.28 in 6 mi North 4.6 mph - -   Haze
12:50 AM 57.2 °F 55.4 °F 94% 30.27 in 6.2 mi North 4.6 mph - N/A   Haze
1:50 AM 56 °F 54 °F 92% 30.27 in 6 mi NNW 3.5 mph - -   Haze
1:50 AM 57.2 °F 53.6 °F 88% 30.27 in 6.2 mi NNW 3.5 mph - N/A   Haze
2:50 AM 57 °F 55 °F 91% 30.26 in 6 mi NNW 4.6 mph - -   Haze
2:50 AM 57.2 °F 55.4 °F 94% 30.24 in 6.2 mi NNW 4.6 mph - N/A   Haze
3:50 AM 56 °F 54 °F 92% 30.25 in 6 mi North 2.3 mph - -   Haze
3:50 AM 55.4 °F 53.6 °F 94% 30.24 in 6.2 mi North 2.3 mph - N/A   Haze
4:50 AM 56 °F 54 °F 93% 30.25 in 6 mi WNW 3.5 mph - -   Mist
4:50 AM 55.4 °F 55.4 °F 100% 30.24 in 6.2 mi WNW 3.5 mph - N/A   Partly Cloudy
5:50 AM 56 °F 55 °F 96% 30.25 in 2 mi NNW 4.6 mph - -   Mist
5:50 AM 57.2 °F 55.4 °F 94% 30.24 in 2.5 mi NNW 4.6 mph - N/A   Scattered Clouds
6:50 AM 58 °F 56 °F 90% 30.26 in 5 mi North 8.9 mph - -   Haze
6:50 AM 57.2 °F 55.4 °F 94% 30.24 in 5.0 mi North 4.6 mph - N/A   Haze
7:50 AM 62 °F 58 °F 81% 30.26 in 6 mi NNW 3.5 mph - -   Haze
7:50 AM 62.6 °F 57.2 °F 82% 30.24 in 6.2 mi NNW 3.5 mph - N/A   Haze
8:50 AM 65 °F 59 °F 74% 30.27 in 9 mi NNE 9.2 mph - -   Haze
8:50 AM 64.4 °F 59.0 °F 83% 30.24 in 6.2 mi NNE 9.2 mph - N/A   Scattered Clouds
9:50 AM 67 °F 59 °F 68% 30.26 in 11 mi North 10.4 mph - -   Haze
9:50 AM 66.2 °F 59.0 °F 78% 30.24 in 6.2 mi North 10.4 mph - N/A   Partly Cloudy
10:50 AM 69 °F 59 °F 62% 30.25 in 12 mi NNE 10.4 mph - -   Scattered Clouds
10:50 AM 68.0 °F 59.0 °F 73% 30.24 in 6.2 mi NNE 10.4 mph - N/A   Scattered Clouds
11:50 AM 69 °F 59 °F 61% 30.25 in 12 mi NNE 15.0 mph - -   Scattered Clouds
11:50 AM 69.8 °F 59.0 °F 68% 30.24 in 6.2 mi NNE 15.0 mph - N/A   Scattered Clouds
12:50 PM 70 °F 60 °F 63% 30.26 in 12 mi North 16.1 mph - -   Scattered Clouds
12:50 PM 69.8 °F 60.8 °F 73% 30.24 in 6.2 mi North 16.1 mph - N/A   Scattered Clouds
1:50 PM 70 °F 59 °F 60% 30.26 in 11 mi North 11.5 mph - -   Haze
1:50 PM 69.8 °F 59.0 °F 68% 30.24 in 6.2 mi North 11.5 mph - N/A   Partly Cloudy
2:50 PM 71 °F 60 °F 60% 30.25 in 11 mi North 11.5 mph - -   Haze
2:50 PM 71.6 °F 60.8 °F 69% 30.24 in 6.2 mi North 11.5 mph - N/A   Partly Cloudy
3:50 PM 71 °F 61 °F 62% 30.25 in 11 mi North 11.5 mph - -   Haze
3:50 PM 71.6 °F 60.8 °F 69% 30.24 in - North 11.5 mph - N/A   Clear
4:50 PM 69.8 °F 59.0 °F 68% 30.24 in - North 12.7 mph - N/A   Clear
5:50 PM 69 °F 59 °F 62% 30.25 in 10 mi North 12.7 mph - -   Haze
5:50 PM 69.8 °F 59.0 °F 68% 30.24 in 6.2 mi North 12.7 mph - N/A   Haze
6:50 PM 67 °F 57 °F 63% 30.25 in 9 mi North 12.7 mph - -   Haze
6:50 PM 68.0 °F 57.2 °F 68% 30.24 in 6.2 mi North 12.7 mph - N/A   Haze
7:50 PM 66 °F 57 °F 64% 30.25 in 9 mi North 11.5 mph - -   Haze
7:50 PM 66.2 °F 57.2 °F 73% 30.24 in 6.2 mi North 11.5 mph - N/A   Haze
8:50 PM 64.4 °F 57.2 °F 77% 30.24 in 6.2 mi North 10.4 mph - N/A   Haze
9:50 PM 62 °F 57 °F 79% 30.27 in 7 mi North 8.1 mph - -   Haze
9:50 PM 62.6 °F 57.2 °F 82% 30.27 in 6.2 mi North 8.1 mph - N/A   Haze
10:50 PM 61 °F 57 °F 82% 30.27 in 7 mi North 10.4 mph - -   Haze
10:50 PM 60.8 °F 57.2 °F 88% 30.27 in 6.2 mi North 10.4 mph - N/A   Haze
11:50 PM 61 °F 57 °F 83% 30.27 in 9 mi NNE 11.5 mph - -   Haze
11:50 PM 60.8 °F 57.2 °F 88% 30.27 in 6.2 mi NNE 11.5 mph - N/A   Haze